[[{"header":{"parameterUnit":"m.s-1","parameterCategory":1,"la1":30.2991,"la2":30.254,"lo1":-89.0895,"lo2":-89.0444,"dy":0.0017,"dx":0.0017,"nx":28,"ny":28,"refTime":"2023-10-27T03:00:00:Z","depth":0,"parameterNumber":2,"parameterNumberName":"U-component_of_WINDS"},"data":[0,0,0,0,0,0,0,0,0,0,0,0,0,0,0,0,0,0,0,0,0,0,0,0,0,0,0,0,0,0,0,0,0,0,0,0,0,0,0,0,0,0,0,0,0,0,0,0,0,0,0,0,0,0,0,0,0,0,-5.5622,-5.5623,0,-5.5711,-5.5712,-5.5713,-5.5701,-5.5699,-5.5698,-5.5696,-5.5786,-5.579,-5.5794,0,0,0,0,0,0,0,0,0,0,0,0,0,-5.5442,-5.5446,-5.5622,-5.5623,-5.5624,-5.5711,-5.5712,-5.5714,-5.5701,-5.5699,-5.5697,-5.5696,-5.5785,-5.5789,-5.5794,0,0,0,0,0,0,0,0,0,0,0,0,0,-5.5525,-5.5447,-5.5622,-5.5628,-5.563,-5.5711,-5.5712,-5.5714,-5.5701,-5.5699,-5.5697,-5.5695,-5.5783,-5.5789,-5.5795,-5.5874,0,0,-5.5812,-5.5814,0,0,0,0,0,0,0,0,-5.552,-5.5531,-5.5626,-5.5628,-5.563,-5.5693,-5.5682,-5.5768,-5.5702,-5.5674,-5.5696,-5.5694,-5.5757,-5.5764,-5.5786,-5.5878,-5.5882,-5.5812,-5.5816,-5.5818,-5.582,0,0,0,0,0,0,0,-5.5514,-5.5527,-5.5657,-5.5628,-5.563,-5.5628,-5.5637,-5.5698,-5.5727,-5.5676,-5.5676,-5.5687,-5.5757,-5.5781,-5.5788,-5.5883,-5.5812,-5.5817,-5.5821,-5.5823,-5.6049,-5.6052,0,0,0,0,0,0,-5.5507,-5.5523,-5.5654,-5.566,-5.5568,-5.5633,-5.5643,-5.5675,-5.5726,-5.5732,-5.5688,-5.5686,-5.5772,-5.5781,-5.5791,-5.5889,-5.5818,-5.5823,-5.5827,-5.6047,-5.605,-5.6053,0,0,0,0,0,0,-5.5503,-5.5519,-5.5651,-5.5591,-5.5608,-5.5638,-5.5674,-5.5678,-5.5701,-5.5735,-5.574,-5.5707,-5.5771,-5.5783,-5.5854,-5.5892,-5.5826,-5.5831,-5.6044,-5.6048,-5.6051,-5.6084,0,0,0,0,0,0,-5.5498,-5.5517,-5.5547,-5.5592,-5.5611,-5.5712,-5.5676,-5.5681,-5.5711,-5.5708,-5.5754,-5.5759,-5.577,-5.5846,-5.586,-5.5898,-5.5836,-5.604,-5.6046,-5.605,-5.608,-5.6089,-5.6097,0,0,0,0,0,-5.5492,-5.5551,-5.5548,-5.5564,-5.5649,-5.5714,-5.5725,-5.5736,-5.5714,-5.5744,-5.5768,-5.5758,-5.5887,-5.5853,-5.5869,-5.591,-5.6038,-5.6044,-5.605,-5.6076,-5.6087,-5.6096,0,0,0,0,0,0,-5.5507,-5.5557,-5.5554,-5.5631,-5.5669,-5.5712,-5.575,-5.5747,-5.5791,-5.5787,-5.5799,-5.581,-5.5882,-5.5904,-5.5866,-5.5992,-5.5959,-5.5969,-5.5974,-5.5985,-5.5993,-5.5985,-5.584,0,0,0,0,0,-5.5521,-5.5569,-5.561,-5.5674,-5.5693,-5.5719,-5.5747,-5.5754,-5.5793,-5.5808,-5.5836,-5.5875,-5.5925,-5.5956,-5.6003,-5.6085,-5.6095,-5.6121,-5.6129,-5.6136,-5.6143,-5.619,-5.6202,-5.6072,-5.6072,-5.6072,0,0,-5.5546,-5.558,-5.5609,-5.5678,-5.5708,-5.5759,-5.5732,-5.5786,-5.5824,-5.5816,-5.5885,-5.5908,-5.5953,-5.603,-5.6065,-5.605,-5.6182,-5.6143,-5.6148,-5.6152,-5.6197,-5.621,-5.622,-5.6076,-5.6075,-5.6075,0,0,-5.5619,-5.565,-5.5707,-5.5739,-5.5785,-5.5803,-5.5817,-5.5863,-5.5878,-5.5948,-5.5945,-5.5991,-5.6075,-5.6108,-5.6135,-5.6228,-5.6221,-5.6243,-5.6285,-5.6331,-5.6341,-5.635,-5.6384,-5.6395,-5.6251,-5.6251,-5.6251,0,-5.5645,-5.5721,-5.5736,-5.5792,-5.5823,-5.5822,-5.5881,-5.5911,-5.5971,-5.5993,-5.5975,-5.6084,-5.6114,-5.62,-5.6223,-5.6245,-5.6262,-5.6236,-5.6339,-5.6348,-5.6357,-5.6389,-5.6401,-5.6253,-5.6253,-5.6253,-5.6252,0,-5.5751,-5.5805,-5.5846,-5.5905,-5.5942,-5.5999,-5.6023,-5.6059,-5.6064,-5.6084,-5.6158,-5.6194,-5.625,-5.6272,-5.6276,-5.636,-5.6349,-5.6336,-5.6303,-5.6371,-5.6401,-5.6414,-5.6256,-5.6256,-5.6255,-5.6254,0,0,-5.5831,-5.5903,-5.5917,-5.5946,-5.6,-5.6042,-5.6102,-5.6158,-5.6188,-5.6231,-5.6281,-5.6356,-5.6345,-5.6377,-5.6386,-5.6426,-5.6499,-5.6408,-5.6409,-5.6423,-5.6595,-5.6603,-5.6617,-5.6497,-5.6499,-5.6501,-5.6591,0,-5.5909,-5.6012,-5.603,-5.6121,-5.6172,-5.6175,-5.6227,-5.6267,-5.6289,-5.6336,-5.6361,-5.6413,-5.6395,-5.6414,-5.6455,-5.6481,-5.6533,-5.6475,-5.6543,-5.6545,-5.6529,-5.6633,-5.6641,-5.6724,-5.6603,-5.6605,-5.6607,0,-5.6011,-5.6059,-5.6156,-5.6207,-5.6229,-5.6275,-5.6331,-5.6376,-5.6423,-5.6436,-5.6475,-5.6481,-5.6544,-5.6512,-5.6599,-5.656,-5.659,-5.6608,-5.6611,-5.6616,-5.6578,-5.6639,-5.6751,-5.6763,-5.6625,-5.6624,-5.6622,0,-5.6059,-5.6148,-5.6218,-5.6243,-5.6305,-5.6338,-5.6365,-5.641,-5.6444,-5.6494,-5.6516,-5.6572,-5.6602,-5.6645,-5.6667,-5.6642,-5.6754,-5.6723,-5.6767,-5.6767,-5.6788,-5.6785,-5.6904,-5.681,-5.681,-5.681,-5.681,0,-5.6142,-5.6201,-5.6241,-5.6284,-5.6351,-5.6373,-5.6439,-5.6466,-5.6508,-5.6557,-5.6564,-5.661,-5.6637,-5.6687,-5.6705,-5.6776,-5.679,-5.6803,-5.6806,-5.6801,-5.6799,-5.6818,-5.6812,-5.6813,-5.6813,-5.6812,-5.6811,0,-5.6205,-5.6234,-5.6311,-5.6366,-5.6381,-5.6428,-5.6475,-5.6518,-5.6543,-5.6605,-5.6621,-5.6659,-5.672,-5.6747,-5.6821,-5.6834,-5.6914,-5.6915,-5.6898,-5.6899,-5.6942,-5.6937,-5.7075,-5.7094,-5.6989,-5.699,-5.6991,0,-5.6255,-5.6301,-5.6362,-5.6396,-5.6425,-5.6479,-5.6515,-5.6541,-5.6578,-5.6638,-5.6674,-5.6736,-5.6785,-5.6883,-5.6917,-5.6975,-5.6976,-5.7021,-5.6984,-5.6979,-5.6976,-5.6972,-5.6978,-5.7026,-5.7027,-5.7028,-5.7029,0,-5.634,-5.6354,-5.6406,-5.6465,-5.6508,-5.6555,-5.6601,-5.6629,-5.6662,-5.6704,-5.6767,-5.6806,-5.6884,-5.6945,-5.7007,-5.7036,-5.7038,-5.7041,-5.7054,-5.7047,-5.7036,-5.7043,-5.6915,-5.7036,-5.7036,-5.7035,-5.7035,-5.7034,-5.6398,-5.644,-5.649,-5.6549,-5.6587,-5.6632,-5.6675,-5.6707,-5.676,-5.6826,-5.6839,-5.6906,-5.6957,-5.704,-5.7072,-5.7126,-5.7115,-5.7134,-5.7139,-5.7142,-5.7145,-5.703,-5.7137,-5.7137,-5.7137,-5.7137,-5.7137,0,-5.6483,-5.6517,-5.6571,-5.6637,-5.6684,-5.6686,-5.6738,-5.6777,-5.6837,-5.6884,-5.6935,-5.7009,-5.707,-5.7112,-5.7174,-5.721,-5.7213,-5.7225,-5.7221,-5.7228,-5.7151,-5.7133,-5.7222,-5.7222,-5.7222,-5.7222,-5.7222,-5.7222,-5.6533,-5.6604,-5.6625,-5.6717,-5.6751,-5.6818,-5.6848,-5.689,-5.6928,-5.7011,-5.7063,-5.709,-5.7137,-5.7203,-5.726,-5.7271,-5.7293,-5.7306,-5.7317,-5.7243,-5.7233,-5.7225,-5.7208,-5.7311,-5.7311,-5.739,-5.739,-5.7391]},{"header":{"parameterUnit":"m.s-1","parameterCategory":1,"la1":30.2991,"la2":30.254,"lo1":-89.0895,"lo2":-89.0444,"dy":0.0017,"dx":0.0017,"nx":28,"ny":28,"refTime":"2023-10-27T03:00:00:Z","depth":0,"parameterNumber":3,"parameterNumberName":"V-component_of_WINDS"},"data":[0,0,0,0,0,0,0,0,0,0,0,0,0,0,0,0,0,0,0,0,0,0,0,0,0,0,0,0,0,0,0,0,0,0,0,0,0,0,0,0,0,0,0,0,0,0,0,0,0,0,0,0,0,0,0,0,0,0,2.6696,2.6697,0,2.6768,2.6769,2.6769,2.6854,2.6855,2.6856,2.6857,2.6924,2.6925,2.6925,0,0,0,0,0,0,0,0,0,0,0,0,0,2.663,2.6631,2.6696,2.6697,2.6698,2.6768,2.6769,2.677,2.6853,2.6855,2.6857,2.6858,2.6924,2.6925,2.6925,0,0,0,0,0,0,0,0,0,0,0,0,0,2.6675,2.6631,2.6696,2.6749,2.6754,2.6767,2.6769,2.677,2.6853,2.6855,2.6857,2.6859,2.6924,2.6925,2.6926,2.6891,0,0,2.6928,2.6928,0,0,0,0,0,0,0,0,2.6673,2.6678,2.674,2.6745,2.6751,2.6804,2.677,2.681,2.6853,2.6815,2.6858,2.686,2.6882,2.6887,2.6896,2.6895,2.6897,2.6928,2.6929,2.6929,2.6929,0,0,0,0,0,0,0,2.667,2.6675,2.6724,2.6741,2.6747,2.6768,2.6776,2.6778,2.6837,2.6819,2.6825,2.6833,2.6886,2.6894,2.6898,2.6898,2.6928,2.6929,2.6929,2.693,2.6878,2.6876,0,0,0,0,0,0,2.6659,2.6672,2.6722,2.6727,2.6716,2.6767,2.6777,2.6785,2.6837,2.6847,2.6831,2.6836,2.6892,2.6897,2.69,2.6867,2.6929,2.693,2.693,2.688,2.6877,2.6875,0,0,0,0,0,0,2.6657,2.6663,2.6719,2.6701,2.671,2.6766,2.6775,2.6785,2.6794,2.6846,2.6857,2.6829,2.6894,2.6899,2.6895,2.6871,2.693,2.6931,2.6882,2.6879,2.6876,2.6798,0,0,0,0,0,0,2.6655,2.6662,2.665,2.67,2.6711,2.6713,2.6773,2.6785,2.6796,2.6804,2.6848,2.6857,2.6896,2.6893,2.6895,2.6873,2.6932,2.6884,2.6881,2.6877,2.6803,2.6793,2.6785,0,0,0,0,0,2.6652,2.6622,2.6649,2.6654,2.6697,2.6711,2.6717,2.6765,2.6794,2.6783,2.6817,2.6855,2.6873,2.6892,2.6895,2.6872,2.6886,2.6882,2.6878,2.6807,2.6795,2.6785,0,0,0,0,0,0,2.6564,2.663,2.666,2.6645,2.6673,2.6726,2.6712,2.6749,2.6767,2.6773,2.6829,2.6838,2.6828,2.6849,2.6869,2.6845,2.6885,2.6881,2.6831,2.6819,2.681,2.6806,2.6932,0,0,0,0,0,2.6544,2.6551,2.6608,2.659,2.6602,2.6655,2.6662,2.6697,2.6727,2.6738,2.6771,2.6797,2.6809,2.6815,2.6829,2.6807,2.6819,2.6793,2.6784,2.6776,2.6772,2.6766,2.6756,2.6861,2.6861,2.6862,0,0,2.65,2.6537,2.6538,2.6573,2.6598,2.6605,2.6663,2.6666,2.6672,2.6738,2.6737,2.6762,2.6795,2.6783,2.6779,2.6801,2.6746,2.6771,2.6764,2.6765,2.676,2.675,2.6742,2.6859,2.6859,2.686,0,0,2.6425,2.6453,2.6443,2.6468,2.6507,2.6543,2.654,2.6589,2.6609,2.661,2.6661,2.6667,2.6685,2.6708,2.6721,2.6659,2.6697,2.6662,2.6613,2.6606,2.6598,2.6591,2.6571,2.6563,2.6658,2.6658,2.6657,0,2.6365,2.6378,2.6432,2.6434,2.6449,2.6513,2.6503,2.6524,2.6564,2.6573,2.6597,2.6625,2.665,2.6646,2.6632,2.664,2.664,2.6657,2.6595,2.6588,2.6583,2.6564,2.6556,2.6653,2.6654,2.6654,2.6655,0,2.6305,2.6313,2.63,2.6342,2.6355,2.635,2.6404,2.6411,2.6445,2.6478,2.648,2.6514,2.6537,2.6539,2.657,2.654,2.6553,2.6585,2.6627,2.6567,2.6551,2.6545,2.6647,2.6649,2.665,2.6651,0,0,2.6174,2.6249,2.6243,2.6264,2.6313,2.632,2.632,2.6346,2.6352,2.6377,2.6379,2.6395,2.6427,2.6443,2.6478,2.6472,2.6424,2.6506,2.6507,2.6491,2.6396,2.6372,2.6363,2.6449,2.6448,2.6447,2.6394,0,2.6109,2.6115,2.6165,2.6156,2.6166,2.6228,2.6228,2.6258,2.629,2.6302,2.6336,2.6348,2.6388,2.6398,2.6395,2.643,2.6406,2.6435,2.6452,2.6452,2.6443,2.6354,2.6329,2.6277,2.6388,2.6386,2.6386,0,2.6034,2.606,2.6052,2.6106,2.6112,2.6111,2.6141,2.6151,2.6187,2.6211,2.6231,2.6272,2.6276,2.6315,2.6322,2.634,2.635,2.6369,2.6368,2.6372,2.6416,2.6358,2.6261,2.6254,2.6376,2.6377,2.6377,0,2.5943,2.5975,2.5976,2.5992,2.6053,2.6052,2.6077,2.6115,2.6129,2.6154,2.6164,2.6187,2.6201,2.6219,2.6266,2.629,2.6268,2.631,2.6288,2.6287,2.6281,2.6281,2.6186,2.6284,2.6284,2.6284,2.6285,0,2.5866,2.586,2.5937,2.5937,2.5933,2.5991,2.5984,2.6015,2.6049,2.6057,2.6111,2.6117,2.6178,2.6191,2.6227,2.6229,2.6233,2.6253,2.6263,2.6249,2.6247,2.6257,2.6262,2.6282,2.6283,2.6283,2.6284,0,2.5763,2.5815,2.5821,2.588,2.5894,2.5889,2.5939,2.5942,2.5978,2.5988,2.5993,2.605,2.6068,2.6117,2.6146,2.6171,2.6163,2.6181,2.6152,2.6159,2.6135,2.6137,2.6044,2.6036,2.6137,2.6136,2.6135,0,2.5712,2.5709,2.5769,2.578,2.5804,2.5819,2.5835,2.5892,2.5906,2.5949,2.5947,2.597,2.5992,2.6019,2.6062,2.6086,2.6105,2.6071,2.6109,2.6097,2.6108,2.6108,2.6109,2.6063,2.6062,2.606,2.6059,0,2.5616,2.5643,2.5664,2.5695,2.5713,2.5739,2.5768,2.5773,2.5838,2.585,2.5872,2.5889,2.5922,2.5945,2.5977,2.6002,2.6042,2.6048,2.6044,2.6031,2.6015,2.6026,2.6131,2.6049,2.605,2.6051,2.6052,2.6052,2.5539,2.5541,2.5585,2.5608,2.5637,2.5664,2.5671,2.571,2.573,2.5763,2.5795,2.5814,2.5852,2.59,2.5922,2.5937,2.5958,2.5952,2.5951,2.5949,2.5944,2.6012,2.5943,2.5943,2.5943,2.5944,2.5944,0,2.5449,2.5481,2.5501,2.5543,2.5561,2.56,2.5635,2.5647,2.5664,2.5698,2.572,2.5745,2.5769,2.5815,2.5843,2.5846,2.5865,2.5852,2.5853,2.5858,2.5923,2.5924,2.5836,2.5836,2.5836,2.5836,2.5836,2.5836,2.5404,2.5411,2.5443,2.5465,2.5497,2.5518,2.5535,2.5561,2.5589,2.5616,2.5637,2.5668,2.5707,2.5739,2.5763,2.5776,2.5784,2.5765,2.5784,2.5843,2.5853,2.5863,2.5865,2.5766,2.5766,2.5719,2.5718,2.5718]}]]